タッカー彗星

C/2004 Q1 ( Tucker )

English version
Home page
Updated on April 23, 2006

---------------------------------------------------------------------

・ プロフィール

発見日 2004年8月23日
発見光度 14.6等
発見者 Roy A. Tucker (Tucson, AZ)

・ 写真集

・ 軌道要素

The following orbital elements are taken from MPC 54698:

Epoch 2004 Dec. 21.0 TT = JDT 2453360.5
T 2004 Dec. 6.8651 TT                                   MPC
q   2.046725             (2000.0)            P               Q
z  +0.005360       Peri.   32.9684      +0.6627902      -0.6804196
 +/-0.000000       Node    22.1302      +0.3683658      -0.0672194
e   0.989029       Incl.   56.0877      +0.6519324      +0.7297333
From 1892 observations 2004 Aug. 22-2005 Aug. 16, mean residual 0".5.

・ 星図

・ 光度変化

        m1 = 0.5 + 5 logΔ + 30.0 log r  [ ,0]  (              〜2004年12月 6日)
        m1 = 6.1 + 5 logΔ + 12   log r  [0, ]  (2004年12月 6日〜              )

---------------------------------------------------------------------

軌道要素はMPCのEphemerides and Orbital Elementsに掲載されたものです。
星図は StellaNavigator Ver.2.0 for Windows (アストロアーツ 編著 / アスキー出版局刊) で作成したものです。
光度グラフはComet for Windowsで作成したものです。

---------------------------------------------------------------------

Copyright(C) Seiichi Yoshida (comet@aerith.net). All rights reserved.